Location: Newark
(43.0000°N, 1.6781°W)
Time: 11:05:27
(UTC+00:00)

Explorer 7 - Pass Details

Date: 25 April 2021
Orbit: 484 x 677 km, 50.3° (Epoch: 07 May)

Event Time Altitude Azimuth Distance (km) Brightness Sun altitude
Rises 17:33:26 0° 222° (SW) 2,550 10.8 14.8°
Reaches altitude 10° 17:35:36 10° 216° (SW) 1,687 9.8 14.4°
Maximum altitude 17:39:16 47° 142° (SE) 681 7.2 13.7°
Drops below altitude 10° 17:43:08 10° 68° (ENE) 1,776 8.9 13.0°
Sets 17:45:28 0° 63° (ENE) 2,703 9.8 12.6°
